Year,Month,Day,Hour,Minute,Value (Times are PST for temperature in C)
2017,09,04,00,00,26.60
2017,09,04,00,01,26.60
2017,09,04,00,02,26.60
2017,09,04,00,03,26.60
2017,09,04,00,04,26.60
2017,09,04,00,05,26.50
2017,09,04,00,06,26.50
2017,09,04,00,07,26.50
2017,09,04,00,08,26.40
2017,09,04,00,09,26.40
2017,09,04,00,10,26.30
2017,09,04,00,11,26.20
2017,09,04,00,12,26.20
2017,09,04,00,13,26.10
2017,09,04,00,14,26.10
2017,09,04,00,15,26.00
2017,09,04,00,16,25.90
2017,09,04,00,17,25.90
2017,09,04,00,18,25.90
2017,09,04,00,19,25.90
2017,09,04,00,20,25.90
2017,09,04,00,21,25.80
2017,09,04,00,22,25.80
2017,09,04,00,23,25.80
2017,09,04,00,24,25.70
2017,09,04,00,25,25.70
2017,09,04,00,26,25.70
2017,09,04,00,27,25.70
2017,09,04,00,28,25.70
2017,09,04,00,29,25.70
2017,09,04,00,30,25.70
2017,09,04,00,31,25.70
2017,09,04,00,32,25.60
2017,09,04,00,33,25.60
2017,09,04,00,34,25.60
2017,09,04,00,35,25.60
2017,09,04,00,36,25.60
2017,09,04,00,37,25.50
2017,09,04,00,38,25.50
2017,09,04,00,39,25.50
2017,09,04,00,40,25.50
2017,09,04,00,41,25.50
2017,09,04,00,42,25.50
2017,09,04,00,43,25.60
2017,09,04,00,44,25.60
2017,09,04,00,45,25.60
2017,09,04,00,46,25.60
2017,09,04,00,47,25.70
2017,09,04,00,48,25.70
2017,09,04,00,49,25.80
2017,09,04,00,50,25.80
2017,09,04,00,51,25.80
2017,09,04,00,52,25.90
2017,09,04,00,53,25.90
2017,09,04,00,54,25.90
2017,09,04,00,55,25.90
2017,09,04,00,56,25.90
2017,09,04,00,57,25.90
2017,09,04,00,58,25.90
2017,09,04,00,59,25.90
2017,09,04,01,00,25.90
2017,09,04,01,01,25.90
2017,09,04,01,02,25.80
2017,09,04,01,03,25.80
2017,09,04,01,04,25.80
2017,09,04,01,05,25.80
2017,09,04,01,06,25.80
2017,09,04,01,07,25.70
2017,09,04,01,08,25.70
2017,09,04,01,09,25.70
2017,09,04,01,10,25.70
2017,09,04,01,11,25.70
2017,09,04,01,12,25.80
2017,09,04,01,13,25.80
2017,09,04,01,14,25.80
2017,09,04,01,15,25.90
2017,09,04,01,16,25.90
2017,09,04,01,17,25.90
2017,09,04,01,18,25.90
2017,09,04,01,19,25.90
2017,09,04,01,20,25.90
2017,09,04,01,21,25.80
2017,09,04,01,22,25.80
2017,09,04,01,23,25.80
2017,09,04,01,24,25.80
2017,09,04,01,25,25.70
2017,09,04,01,26,25.70
2017,09,04,01,27,25.70
2017,09,04,01,28,25.60
2017,09,04,01,29,25.60
2017,09,04,01,30,25.60
2017,09,04,01,31,25.50
2017,09,04,01,32,25.50
2017,09,04,01,33,25.50
2017,09,04,01,34,25.40
2017,09,04,01,35,25.40
2017,09,04,01,36,25.40
2017,09,04,01,37,25.40
2017,09,04,01,38,25.30
2017,09,04,01,39,25.40
2017,09,04,01,40,25.40
2017,09,04,01,41,25.30
2017,09,04,01,42,25.30
2017,09,04,01,43,25.30
2017,09,04,01,44,25.30
2017,09,04,01,45,25.30
2017,09,04,01,46,25.30
2017,09,04,01,47,25.30
2017,09,04,01,48,25.30
2017,09,04,01,49,25.20
2017,09,04,01,50,25.20
2017,09,04,01,51,25.20
2017,09,04,01,52,25.20
2017,09,04,01,53,25.20
2017,09,04,01,54,25.20
2017,09,04,01,55,25.10
2017,09,04,01,56,25.10
2017,09,04,01,57,25.10
2017,09,04,01,58,25.20
2017,09,04,01,59,25.10
2017,09,04,02,00,25.10
2017,09,04,02,01,25.10
2017,09,04,02,02,25.10
2017,09,04,02,03,25.10
2017,09,04,02,04,25.10
2017,09,04,02,05,25.00
2017,09,04,02,06,25.00
2017,09,04,02,07,24.90
2017,09,04,02,08,24.90
2017,09,04,02,09,24.90
2017,09,04,02,10,24.90
2017,09,04,02,11,24.90
2017,09,04,02,12,24.80
2017,09,04,02,13,24.80
2017,09,04,02,14,24.80
2017,09,04,02,15,24.80
2017,09,04,02,16,24.80
2017,09,04,02,17,24.80
2017,09,04,02,18,24.70
2017,09,04,02,19,24.70
2017,09,04,02,20,24.70
2017,09,04,02,21,24.70
2017,09,04,02,22,24.70
2017,09,04,02,23,24.70
2017,09,04,02,24,24.70
2017,09,04,02,25,24.70
2017,09,04,02,26,24.70
2017,09,04,02,27,24.70
2017,09,04,02,28,24.70
2017,09,04,02,29,24.70
2017,09,04,02,30,24.70
2017,09,04,02,31,24.70
2017,09,04,02,32,24.70
2017,09,04,02,33,24.70
2017,09,04,02,34,24.70
2017,09,04,02,35,24.70
2017,09,04,02,36,24.70
2017,09,04,02,37,24.70
2017,09,04,02,38,24.70
2017,09,04,02,39,24.70
2017,09,04,02,40,24.70
2017,09,04,02,41,24.70
2017,09,04,02,42,24.70
2017,09,04,02,43,24.60
2017,09,04,02,44,24.60
2017,09,04,02,45,24.60
2017,09,04,02,46,24.50
2017,09,04,02,47,24.50
2017,09,04,02,48,24.40
2017,09,04,02,49,24.40
2017,09,04,02,50,24.40
2017,09,04,02,51,24.40
2017,09,04,02,52,24.40
2017,09,04,02,53,24.40
2017,09,04,02,54,24.40
2017,09,04,02,55,24.40
2017,09,04,02,56,24.30
2017,09,04,02,57,24.30
2017,09,04,02,58,24.30
2017,09,04,02,59,24.30
2017,09,04,03,00,24.30
2017,09,04,03,01,24.30
2017,09,04,03,02,24.30
2017,09,04,03,03,24.30
2017,09,04,03,04,24.30
2017,09,04,03,05,24.30
2017,09,04,03,06,24.30
2017,09,04,03,07,24.30
2017,09,04,03,08,24.30
2017,09,04,03,09,24.30
2017,09,04,03,10,24.30
2017,09,04,03,11,24.30
2017,09,04,03,12,24.30
2017,09,04,03,13,24.30
2017,09,04,03,14,24.30
2017,09,04,03,15,24.30
2017,09,04,03,16,24.30
2017,09,04,03,17,24.30
2017,09,04,03,18,24.30
2017,09,04,03,19,24.30
2017,09,04,03,20,24.30
2017,09,04,03,21,24.20
2017,09,04,03,22,24.20
2017,09,04,03,23,24.20
2017,09,04,03,24,24.10
2017,09,04,03,25,24.10
2017,09,04,03,26,24.10
2017,09,04,03,27,24.10
2017,09,04,03,28,24.10
2017,09,04,03,29,24.10
2017,09,04,03,30,24.00
2017,09,04,03,31,24.00
2017,09,04,03,32,24.00
2017,09,04,03,33,24.00
2017,09,04,03,34,24.00
2017,09,04,03,35,24.00
2017,09,04,03,36,24.00
2017,09,04,03,37,24.00
2017,09,04,03,38,23.90
2017,09,04,03,39,23.90
2017,09,04,03,40,23.90
2017,09,04,03,41,23.90
2017,09,04,03,42,23.90
2017,09,04,03,43,23.90
2017,09,04,03,44,23.90
2017,09,04,03,45,23.90
2017,09,04,03,46,23.90
2017,09,04,03,47,23.90
2017,09,04,03,48,23.90
2017,09,04,03,49,23.80
2017,09,04,03,50,23.90
2017,09,04,03,51,23.90
2017,09,04,03,52,23.90
2017,09,04,03,53,23.90
2017,09,04,03,54,23.90
2017,09,04,03,55,23.90
2017,09,04,03,56,23.90
2017,09,04,03,57,23.90
2017,09,04,03,58,23.90
2017,09,04,03,59,23.90
2017,09,04,04,00,23.80
2017,09,04,04,01,23.80
2017,09,04,04,02,23.80
2017,09,04,04,03,23.80
2017,09,04,04,04,23.80
2017,09,04,04,05,23.80
2017,09,04,04,06,23.80
2017,09,04,04,07,23.80
2017,09,04,04,08,23.80
2017,09,04,04,09,23.80
2017,09,04,04,10,23.80
2017,09,04,04,11,23.80
2017,09,04,04,12,23.80
2017,09,04,04,13,23.80
2017,09,04,04,14,23.80
2017,09,04,04,15,23.70
2017,09,04,04,16,23.70
2017,09,04,04,17,23.70
2017,09,04,04,18,23.70
2017,09,04,04,19,23.60
2017,09,04,04,20,23.60
2017,09,04,04,21,23.60
2017,09,04,04,22,23.60
2017,09,04,04,23,23.60
2017,09,04,04,24,23.60
2017,09,04,04,25,23.60
2017,09,04,04,26,23.60
2017,09,04,04,27,23.60
2017,09,04,04,28,23.60
2017,09,04,04,29,23.60
2017,09,04,04,30,23.60
2017,09,04,04,31,23.60
2017,09,04,04,32,23.60
2017,09,04,04,33,23.60
2017,09,04,04,34,23.60
2017,09,04,04,35,23.60
2017,09,04,04,36,23.60
2017,09,04,04,37,23.60
2017,09,04,04,38,23.60
2017,09,04,04,39,23.60
2017,09,04,04,40,23.60
2017,09,04,04,41,23.60
2017,09,04,04,42,23.60
2017,09,04,04,43,23.60
2017,09,04,04,44,23.60
2017,09,04,04,45,23.60
2017,09,04,04,46,23.60
2017,09,04,04,47,23.60
2017,09,04,04,48,23.50
2017,09,04,04,49,23.50
2017,09,04,04,50,23.40
2017,09,04,04,51,23.40
2017,09,04,04,52,23.40
2017,09,04,04,53,23.40
2017,09,04,04,54,23.40
2017,09,04,04,55,23.30
2017,09,04,04,56,23.30
2017,09,04,04,57,23.30
2017,09,04,04,58,23.20
2017,09,04,04,59,23.20
2017,09,04,05,00,23.20
2017,09,04,05,01,23.20
2017,09,04,05,02,23.20
2017,09,04,05,03,23.20
2017,09,04,05,04,23.20
2017,09,04,05,05,23.20
2017,09,04,05,06,23.20
2017,09,04,05,07,23.10
2017,09,04,05,08,23.10
2017,09,04,05,09,23.10
2017,09,04,05,10,23.10
2017,09,04,05,11,23.10
2017,09,04,05,12,23.10
2017,09,04,05,13,23.00
2017,09,04,05,14,23.00
2017,09,04,05,15,23.00
2017,09,04,05,16,22.90
2017,09,04,05,17,22.90
2017,09,04,05,18,22.90
2017,09,04,05,19,23.00
2017,09,04,05,20,23.00
2017,09,04,05,21,23.00
2017,09,04,05,22,23.00
2017,09,04,05,23,22.90
2017,09,04,05,24,22.90
2017,09,04,05,25,22.90
2017,09,04,05,26,22.90
2017,09,04,05,27,22.90
2017,09,04,05,28,22.90
2017,09,04,05,29,22.90
2017,09,04,05,30,22.90
2017,09,04,05,31,22.90
2017,09,04,05,32,22.90
2017,09,04,05,33,22.90
2017,09,04,05,34,22.90
2017,09,04,05,35,22.90
2017,09,04,05,36,22.90
2017,09,04,05,37,22.80
2017,09,04,05,38,22.80
2017,09,04,05,39,22.80
2017,09,04,05,40,22.80
2017,09,04,05,41,22.80
2017,09,04,05,42,22.80
2017,09,04,05,43,22.80
2017,09,04,05,44,22.80
2017,09,04,05,45,22.80
2017,09,04,05,46,22.80
2017,09,04,05,47,22.70
2017,09,04,05,48,22.70
2017,09,04,05,49,22.70
2017,09,04,05,50,22.60
2017,09,04,05,51,22.60
2017,09,04,05,52,22.60
2017,09,04,05,53,22.50
2017,09,04,05,54,22.50
2017,09,04,05,55,22.50
2017,09,04,05,56,22.40
2017,09,04,05,57,22.40
2017,09,04,05,58,22.40
2017,09,04,05,59,22.30
2017,09,04,06,00,22.30
2017,09,04,06,01,22.30
2017,09,04,06,02,22.30
2017,09,04,06,03,22.30
2017,09,04,06,04,22.30
2017,09,04,06,05,22.30
2017,09,04,06,06,22.30
2017,09,04,06,07,22.30
2017,09,04,06,08,22.30
2017,09,04,06,09,22.30
2017,09,04,06,10,22.30
2017,09,04,06,11,22.30
2017,09,04,06,12,22.30
2017,09,04,06,13,22.30
2017,09,04,06,14,22.30
2017,09,04,06,15,22.30
2017,09,04,06,16,22.30
2017,09,04,06,17,22.30
2017,09,04,06,18,22.30
2017,09,04,06,19,22.40
2017,09,04,06,20,22.30
2017,09,04,06,21,22.30
2017,09,04,06,22,22.30
2017,09,04,06,23,22.30
2017,09,04,06,24,22.30
2017,09,04,06,25,22.30
2017,09,04,06,26,22.30
2017,09,04,06,27,22.30
2017,09,04,06,28,22.30
2017,09,04,06,29,22.30
2017,09,04,06,30,22.30
2017,09,04,06,31,22.30
2017,09,04,06,32,22.30
2017,09,04,06,33,22.30
2017,09,04,06,34,22.30
2017,09,04,06,35,22.30
2017,09,04,06,36,22.30
2017,09,04,06,37,22.30
2017,09,04,06,38,22.30
2017,09,04,06,39,22.30
2017,09,04,06,40,22.30
2017,09,04,06,41,22.30
2017,09,04,06,42,22.30
2017,09,04,06,43,22.30
2017,09,04,06,44,22.30
2017,09,04,06,45,22.30
2017,09,04,06,46,22.30
2017,09,04,06,47,22.30
2017,09,04,06,48,22.30
2017,09,04,06,49,22.30
2017,09,04,06,50,22.30
2017,09,04,06,51,22.20
2017,09,04,06,52,22.20
2017,09,04,06,53,22.20
2017,09,04,06,54,22.20
2017,09,04,06,55,22.10
2017,09,04,06,56,22.10
2017,09,04,06,57,22.10
2017,09,04,06,58,22.10
2017,09,04,06,59,22.10
2017,09,04,07,00,22.10
2017,09,04,07,01,22.10
2017,09,04,07,02,22.10
2017,09,04,07,03,22.10
2017,09,04,07,04,22.10
2017,09,04,07,05,22.10
2017,09,04,07,06,22.10
2017,09,04,07,07,22.10
2017,09,04,07,08,22.10
2017,09,04,07,09,22.10
2017,09,04,07,10,22.10
2017,09,04,07,11,22.10
2017,09,04,07,12,22.20
2017,09,04,07,13,22.20
2017,09,04,07,14,22.20
2017,09,04,07,15,22.20
2017,09,04,07,16,22.20
2017,09,04,07,17,22.20
2017,09,04,07,18,22.30
2017,09,04,07,19,22.30
2017,09,04,07,20,22.30
2017,09,04,07,21,22.30
2017,09,04,07,22,22.30
2017,09,04,07,23,22.30
2017,09,04,07,24,22.30
2017,09,04,07,25,22.30
2017,09,04,07,26,22.30
2017,09,04,07,27,22.30
2017,09,04,07,28,22.30
2017,09,04,07,29,22.40
2017,09,04,07,30,22.40
2017,09,04,07,31,22.40
2017,09,04,07,32,22.40
2017,09,04,07,33,22.40
2017,09,04,07,34,22.40
2017,09,04,07,35,22.40
2017,09,04,07,36,22.40
2017,09,04,07,37,22.40
2017,09,04,07,38,22.50
2017,09,04,07,39,22.50
2017,09,04,07,40,22.50
2017,09,04,07,41,22.50
2017,09,04,07,42,22.50
2017,09,04,07,43,22.60
2017,09,04,07,44,22.60
2017,09,04,07,45,22.60
2017,09,04,07,46,22.60
2017,09,04,07,47,22.60
2017,09,04,07,48,22.70
2017,09,04,07,49,22.70
2017,09,04,07,50,22.70
2017,09,04,07,51,22.70
2017,09,04,07,52,22.70
2017,09,04,07,53,22.80
2017,09,04,07,54,22.80
2017,09,04,07,55,22.80
2017,09,04,07,56,22.80
2017,09,04,07,57,22.80
2017,09,04,07,58,22.80
2017,09,04,07,59,22.80
2017,09,04,08,00,22.80
2017,09,04,08,01,22.80
2017,09,04,08,02,22.80
2017,09,04,08,03,22.80
2017,09,04,08,04,22.80
2017,09,04,08,05,22.90
2017,09,04,08,06,22.90
2017,09,04,08,07,22.90
2017,09,04,08,08,22.90
2017,09,04,08,09,22.90
2017,09,04,08,10,22.90
2017,09,04,08,11,22.90
2017,09,04,08,12,22.90
2017,09,04,08,13,22.90
2017,09,04,08,14,22.90
2017,09,04,08,15,22.90
2017,09,04,08,16,22.90
2017,09,04,08,17,22.90
2017,09,04,08,18,22.90
2017,09,04,08,19,23.00
2017,09,04,08,20,23.00
2017,09,04,08,21,23.00
2017,09,04,08,22,23.00
2017,09,04,08,23,23.00
2017,09,04,08,24,23.00
2017,09,04,08,25,23.10
2017,09,04,08,26,23.10
2017,09,04,08,27,23.10
2017,09,04,08,28,23.10
2017,09,04,08,29,23.10
2017,09,04,08,30,23.10
2017,09,04,08,31,23.20
2017,09,04,08,32,23.20
2017,09,04,08,33,23.20
2017,09,04,08,34,23.20
2017,09,04,08,35,23.30
2017,09,04,08,36,23.30
2017,09,04,08,37,23.30
2017,09,04,08,38,23.30
2017,09,04,08,39,23.30
2017,09,04,08,40,23.40
2017,09,04,08,41,23.40
2017,09,04,08,42,23.40
2017,09,04,08,43,23.40
2017,09,04,08,44,23.40
2017,09,04,08,45,23.40
2017,09,04,08,46,23.40
2017,09,04,08,47,23.50
2017,09,04,08,48,23.50
2017,09,04,08,49,23.60
2017,09,04,08,50,23.60
2017,09,04,08,51,23.60
2017,09,04,08,52,23.70
2017,09,04,08,53,23.70
2017,09,04,08,54,23.70
2017,09,04,08,55,23.80
2017,09,04,08,56,23.70
2017,09,04,08,57,23.80
2017,09,04,08,58,23.80
2017,09,04,08,59,23.80
2017,09,04,09,00,23.80
2017,09,04,09,01,23.90
2017,09,04,09,02,23.90
2017,09,04,09,03,23.90
2017,09,04,09,04,23.90
2017,09,04,09,05,24.00
2017,09,04,09,06,24.00
2017,09,04,09,07,24.10
2017,09,04,09,08,24.10
2017,09,04,09,09,24.10
2017,09,04,09,10,24.10
2017,09,04,09,11,24.10
2017,09,04,09,12,24.10
2017,09,04,09,13,24.10
2017,09,04,09,14,24.20
2017,09,04,09,15,24.10
2017,09,04,09,16,24.10
2017,09,04,09,17,24.10
2017,09,04,09,18,24.10
2017,09,04,09,19,24.10
2017,09,04,09,20,24.10
2017,09,04,09,21,24.20
2017,09,04,09,22,24.20
2017,09,04,09,23,24.10
2017,09,04,09,24,24.10
2017,09,04,09,25,24.00
2017,09,04,09,26,23.80
2017,09,04,09,27,23.70
2017,09,04,09,28,23.60
2017,09,04,09,29,23.60
2017,09,04,09,30,23.50
2017,09,04,09,31,23.40
2017,09,04,09,32,23.40
2017,09,04,09,33,23.30
2017,09,04,09,34,23.20
2017,09,04,09,35,23.10
2017,09,04,09,36,23.10
2017,09,04,09,37,23.10
2017,09,04,09,38,23.10
2017,09,04,09,39,23.00
2017,09,04,09,40,23.00
2017,09,04,09,41,23.00
2017,09,04,09,42,23.10
2017,09,04,09,43,23.10
2017,09,04,09,44,23.10
2017,09,04,09,45,23.10
2017,09,04,09,46,23.10
2017,09,04,09,47,23.10
2017,09,04,09,48,23.10
2017,09,04,09,49,23.10
2017,09,04,09,50,23.10
2017,09,04,09,51,23.00
2017,09,04,09,52,23.00
2017,09,04,09,53,22.90
2017,09,04,09,54,22.90
2017,09,04,09,55,22.80
2017,09,04,09,56,22.80
2017,09,04,09,57,22.80
2017,09,04,09,58,22.80
2017,09,04,09,59,22.90
2017,09,04,10,00,22.90
2017,09,04,10,01,22.90
2017,09,04,10,02,23.00
2017,09,04,10,03,23.00
2017,09,04,10,04,23.00
2017,09,04,10,05,23.10
2017,09,04,10,06,23.10
2017,09,04,10,07,23.10
2017,09,04,10,08,23.10
2017,09,04,10,09,23.10
2017,09,04,10,10,23.10
2017,09,04,10,11,23.10
2017,09,04,10,12,23.20
2017,09,04,10,13,23.20
2017,09,04,10,14,23.20
2017,09,04,10,15,23.30
2017,09,04,10,16,23.30
2017,09,04,10,17,23.40
2017,09,04,10,18,23.40
2017,09,04,10,19,23.40
2017,09,04,10,20,23.40
2017,09,04,10,21,23.40
2017,09,04,10,22,23.40
2017,09,04,10,23,23.40
2017,09,04,10,24,23.50
2017,09,04,10,25,23.50
2017,09,04,10,26,23.50
2017,09,04,10,27,23.50
2017,09,04,10,28,23.50
2017,09,04,10,29,23.50
2017,09,04,10,30,23.40
2017,09,04,10,31,23.40
2017,09,04,10,32,23.40
2017,09,04,10,33,23.40
2017,09,04,10,34,23.40
2017,09,04,10,35,23.40
2017,09,04,10,36,23.40
2017,09,04,10,37,23.40
2017,09,04,10,38,23.40
2017,09,04,10,39,23.40
2017,09,04,10,40,23.40
2017,09,04,10,41,23.40
2017,09,04,10,42,23.40
2017,09,04,10,43,23.40
2017,09,04,10,44,23.40
2017,09,04,10,45,23.40
2017,09,04,10,46,23.40
2017,09,04,10,47,23.50
2017,09,04,10,48,23.50
2017,09,04,10,49,23.60
2017,09,04,10,50,23.60
2017,09,04,10,51,23.60
2017,09,04,10,52,23.70
2017,09,04,10,53,23.80
2017,09,04,10,54,23.80
2017,09,04,10,55,23.90
2017,09,04,10,56,23.90
2017,09,04,10,57,23.90
2017,09,04,10,58,23.90
2017,09,04,10,59,23.80
2017,09,04,11,00,23.70
2017,09,04,11,01,23.70
2017,09,04,11,02,23.70
2017,09,04,11,03,23.70
2017,09,04,11,04,23.70
2017,09,04,11,05,23.60
2017,09,04,11,06,23.60
2017,09,04,11,07,23.50
2017,09,04,11,08,23.40
2017,09,04,11,09,23.50
2017,09,04,11,10,23.50
2017,09,04,11,11,23.60
2017,09,04,11,12,23.60
2017,09,04,11,13,23.60
2017,09,04,11,14,23.70
2017,09,04,11,15,23.70
2017,09,04,11,16,23.70
2017,09,04,11,17,23.70
2017,09,04,11,18,23.70
2017,09,04,11,19,23.70
2017,09,04,11,20,23.80
2017,09,04,11,21,23.80
2017,09,04,11,22,23.80
2017,09,04,11,23,23.90
2017,09,04,11,24,23.90
2017,09,04,11,25,23.80
2017,09,04,11,26,23.80
2017,09,04,11,27,23.80
2017,09,04,11,28,23.80
2017,09,04,11,29,23.80
2017,09,04,11,30,23.90
2017,09,04,11,31,23.90
2017,09,04,11,32,23.90
2017,09,04,11,33,23.90
2017,09,04,11,34,23.90
2017,09,04,11,35,24.00
2017,09,04,11,36,24.00
2017,09,04,11,37,24.10
2017,09,04,11,38,24.20
2017,09,04,11,39,24.20
2017,09,04,11,40,24.20
2017,09,04,11,41,24.30
2017,09,04,11,42,24.30
2017,09,04,11,43,24.30
2017,09,04,11,44,24.30
2017,09,04,11,45,24.30
2017,09,04,11,46,24.30
2017,09,04,11,47,24.30
2017,09,04,11,48,24.40
2017,09,04,11,49,24.40
2017,09,04,11,50,24.30
2017,09,04,11,51,24.30
2017,09,04,11,52,24.40
2017,09,04,11,53,24.40
2017,09,04,11,54,24.40
2017,09,04,11,55,24.40
2017,09,04,11,56,24.40
2017,09,04,11,57,24.50
2017,09,04,11,58,24.50
2017,09,04,11,59,24.60
2017,09,04,12,00,24.70
2017,09,04,12,01,24.80
2017,09,04,12,02,24.80
2017,09,04,12,03,24.70
2017,09,04,12,04,24.70
2017,09,04,12,05,24.70
2017,09,04,12,06,24.60
2017,09,04,12,07,24.60
2017,09,04,12,08,24.50
2017,09,04,12,09,24.50
2017,09,04,12,10,24.50
2017,09,04,12,11,24.60
2017,09,04,12,12,24.70
2017,09,04,12,13,24.80
2017,09,04,12,14,24.90
2017,09,04,12,15,24.90
2017,09,04,12,16,25.00
2017,09,04,12,17,25.00
2017,09,04,12,18,25.00
2017,09,04,12,19,24.90
2017,09,04,12,20,24.90
2017,09,04,12,21,24.90
2017,09,04,12,22,24.90
2017,09,04,12,23,24.80
2017,09,04,12,24,24.80
2017,09,04,12,25,24.70
2017,09,04,12,26,24.70
2017,09,04,12,27,24.70
2017,09,04,12,28,24.70
2017,09,04,12,29,24.70
2017,09,04,12,30,24.70
2017,09,04,12,31,24.70
2017,09,04,12,32,24.70
2017,09,04,12,33,24.80
2017,09,04,12,34,24.80
2017,09,04,12,35,24.90
2017,09,04,12,36,24.90
2017,09,04,12,37,25.00
2017,09,04,12,38,25.10
2017,09,04,12,39,25.10
2017,09,04,12,40,25.10
2017,09,04,12,41,25.20
2017,09,04,12,42,25.20
2017,09,04,12,43,25.30
2017,09,04,12,44,25.30
2017,09,04,12,45,25.20
2017,09,04,12,46,25.20
2017,09,04,12,47,25.20
2017,09,04,12,48,25.20
2017,09,04,12,49,25.20
2017,09,04,12,50,25.20
2017,09,04,12,51,25.30
2017,09,04,12,52,25.20
2017,09,04,12,53,25.20
2017,09,04,12,54,25.20
2017,09,04,12,55,25.20
2017,09,04,12,56,25.30
2017,09,04,12,57,25.30
2017,09,04,12,58,25.40
2017,09,04,12,59,25.40
2017,09,04,13,00,25.50
2017,09,04,13,01,25.60
2017,09,04,13,02,25.60
2017,09,04,13,03,25.60
2017,09,04,13,04,25.60
2017,09,04,13,05,25.60
2017,09,04,13,06,25.60
2017,09,04,13,07,25.70
2017,09,04,13,08,25.70
2017,09,04,13,09,25.80
2017,09,04,13,10,25.90
2017,09,04,13,11,25.90
2017,09,04,13,12,25.90
2017,09,04,13,13,25.90
2017,09,04,13,14,25.90
2017,09,04,13,15,25.90
2017,09,04,13,16,25.90
2017,09,04,13,17,25.90
2017,09,04,13,18,25.90
2017,09,04,13,19,25.90
2017,09,04,13,20,25.90
2017,09,04,13,21,26.00
2017,09,04,13,22,26.00
2017,09,04,13,23,26.00
2017,09,04,13,24,26.10
2017,09,04,13,25,26.10
2017,09,04,13,26,26.10
2017,09,04,13,27,26.20
2017,09,04,13,28,26.10
2017,09,04,13,29,26.20
2017,09,04,13,30,26.20
2017,09,04,13,31,26.20
2017,09,04,13,32,26.30
2017,09,04,13,33,26.30
2017,09,04,13,34,26.40
2017,09,04,13,35,26.40
2017,09,04,13,36,26.50
2017,09,04,13,37,26.60
2017,09,04,13,38,26.60
2017,09,04,13,39,26.60
2017,09,04,13,40,26.60
2017,09,04,13,41,26.60
2017,09,04,13,42,26.60
2017,09,04,13,43,26.60
2017,09,04,13,44,26.70
2017,09,04,13,45,26.80
2017,09,04,13,46,26.80
2017,09,04,13,47,26.80
2017,09,04,13,48,26.80
2017,09,04,13,49,26.80
2017,09,04,13,50,26.80
2017,09,04,13,51,26.70
2017,09,04,13,52,26.70
2017,09,04,13,53,26.70
2017,09,04,13,54,26.70
2017,09,04,13,55,26.70
2017,09,04,13,56,26.70
2017,09,04,13,57,26.80
2017,09,04,13,58,26.80
2017,09,04,13,59,26.80
2017,09,04,14,00,26.90
2017,09,04,14,01,27.00
2017,09,04,14,02,27.00
2017,09,04,14,03,27.10
2017,09,04,14,04,27.20
2017,09,04,14,05,27.20
2017,09,04,14,06,27.30
2017,09,04,14,07,27.30
2017,09,04,14,08,27.30
2017,09,04,14,09,27.40
2017,09,04,14,10,27.40
2017,09,04,14,11,27.40
2017,09,04,14,12,27.50
2017,09,04,14,13,27.50
2017,09,04,14,14,27.50
2017,09,04,14,15,27.60
2017,09,04,14,16,27.60
2017,09,04,14,17,27.60
2017,09,04,14,18,27.70
2017,09,04,14,19,27.70
2017,09,04,14,20,27.80
2017,09,04,14,21,27.90
2017,09,04,14,22,27.90
2017,09,04,14,23,28.00
2017,09,04,14,24,28.00
2017,09,04,14,25,28.10
2017,09,04,14,26,28.10
2017,09,04,14,27,28.10
2017,09,04,14,28,28.10
2017,09,04,14,29,28.10
2017,09,04,14,30,28.10
2017,09,04,14,31,28.00
2017,09,04,14,32,28.00
2017,09,04,14,33,27.90
2017,09,04,14,34,27.90
2017,09,04,14,35,27.90
2017,09,04,14,36,27.80
2017,09,04,14,37,27.80
2017,09,04,14,38,27.90
2017,09,04,14,39,27.90
2017,09,04,14,40,28.00
2017,09,04,14,41,28.10
2017,09,04,14,42,28.10
2017,09,04,14,43,28.10
2017,09,04,14,44,28.10
2017,09,04,14,45,28.20
2017,09,04,14,46,28.20
2017,09,04,14,47,28.30
2017,09,04,14,48,28.40
2017,09,04,14,49,28.40
2017,09,04,14,50,28.40
2017,09,04,14,51,28.40
2017,09,04,14,52,28.40
2017,09,04,14,53,28.40
2017,09,04,14,54,28.50
2017,09,04,14,55,28.50
2017,09,04,14,56,28.50
2017,09,04,14,57,28.50
2017,09,04,14,58,28.50
2017,09,04,14,59,28.50
2017,09,04,15,00,28.50
2017,09,04,15,01,28.50
2017,09,04,15,02,28.50
2017,09,04,15,03,28.50
2017,09,04,15,04,28.40
2017,09,04,15,05,28.40
2017,09,04,15,06,28.40
2017,09,04,15,07,28.30
2017,09,04,15,08,28.40
2017,09,04,15,09,28.40
2017,09,04,15,10,28.40
2017,09,04,15,11,28.40
2017,09,04,15,12,28.40
2017,09,04,15,13,28.40
2017,09,04,15,14,28.40
2017,09,04,15,15,28.40
2017,09,04,15,16,28.40
2017,09,04,15,17,28.40
2017,09,04,15,18,28.50
2017,09,04,15,19,28.60
2017,09,04,15,20,28.70
2017,09,04,15,21,28.70
2017,09,04,15,22,28.80
2017,09,04,15,23,28.80
2017,09,04,15,24,28.80
2017,09,04,15,25,28.80
2017,09,04,15,26,28.80
2017,09,04,15,27,28.80
2017,09,04,15,28,28.80
2017,09,04,15,29,28.80
2017,09,04,15,30,28.80
2017,09,04,15,31,28.80
2017,09,04,15,32,28.70
2017,09,04,15,33,28.70
2017,09,04,15,34,28.70
2017,09,04,15,35,28.70
2017,09,04,15,36,28.70
2017,09,04,15,37,28.60
2017,09,04,15,38,28.60
2017,09,04,15,39,28.60
2017,09,04,15,40,28.50
2017,09,04,15,41,28.50
2017,09,04,15,42,28.50
2017,09,04,15,43,28.50
2017,09,04,15,44,28.40
2017,09,04,15,45,28.40
2017,09,04,15,46,28.40
2017,09,04,15,47,28.40
2017,09,04,15,48,28.40
2017,09,04,15,49,28.40
2017,09,04,15,50,28.40
2017,09,04,15,51,28.40
2017,09,04,15,52,28.40
2017,09,04,15,53,28.40
2017,09,04,15,54,28.50
2017,09,04,15,55,28.50
2017,09,04,15,56,28.40
2017,09,04,15,57,28.40
2017,09,04,15,58,28.50
2017,09,04,15,59,28.50
2017,09,04,16,00,28.50
2017,09,04,16,01,28.50
2017,09,04,16,02,28.50
2017,09,04,16,03,28.60
2017,09,04,16,04,28.60
2017,09,04,16,05,28.60
2017,09,04,16,06,28.60
2017,09,04,16,07,28.60
2017,09,04,16,08,28.70
2017,09,04,16,09,28.70
2017,09,04,16,10,28.80
2017,09,04,16,11,28.80
2017,09,04,16,12,28.80
2017,09,04,16,13,28.90
2017,09,04,16,14,29.00
2017,09,04,16,15,29.00
2017,09,04,16,16,29.10
2017,09,04,16,17,29.10
2017,09,04,16,18,29.00
2017,09,04,16,19,29.00
2017,09,04,16,20,28.90
2017,09,04,16,21,28.90
2017,09,04,16,22,28.90
2017,09,04,16,23,28.90
2017,09,04,16,24,28.90
2017,09,04,16,25,28.90
2017,09,04,16,26,28.90
2017,09,04,16,27,28.90
2017,09,04,16,28,28.90
2017,09,04,16,29,28.80
2017,09,04,16,30,28.80
2017,09,04,16,31,28.80
2017,09,04,16,32,28.80
2017,09,04,16,33,28.90
2017,09,04,16,34,28.90
2017,09,04,16,35,29.00
2017,09,04,16,36,29.10
2017,09,04,16,37,29.10
2017,09,04,16,38,29.20
2017,09,04,16,39,29.20
2017,09,04,16,40,29.30
2017,09,04,16,41,29.40
2017,09,04,16,42,29.50
2017,09,04,16,43,29.60
2017,09,04,16,44,29.60
2017,09,04,16,45,29.70
2017,09,04,16,46,29.70
2017,09,04,16,47,29.70
2017,09,04,16,48,29.70
2017,09,04,16,49,29.80
2017,09,04,16,50,29.80
2017,09,04,16,51,29.80
2017,09,04,16,52,29.80
2017,09,04,16,53,29.80
2017,09,04,16,54,29.80
2017,09,04,16,55,29.80
2017,09,04,16,56,29.80
2017,09,04,16,57,29.80
2017,09,04,16,58,29.80
2017,09,04,16,59,29.80
2017,09,04,17,00,29.80
2017,09,04,17,01,29.80
2017,09,04,17,02,29.80
2017,09,04,17,03,29.80
2017,09,04,17,04,29.80
2017,09,04,17,05,29.90
2017,09,04,17,06,29.90
2017,09,04,17,07,29.90
2017,09,04,17,08,29.90
2017,09,04,17,09,29.90
2017,09,04,17,10,29.90
2017,09,04,17,11,29.90
2017,09,04,17,12,29.80
2017,09,04,17,13,29.80
2017,09,04,17,14,29.90
2017,09,04,17,15,29.90
2017,09,04,17,16,29.90
2017,09,04,17,17,29.90
2017,09,04,17,18,29.90
2017,09,04,17,19,29.90